Flag for Germany Weather past 2 weeks in Homburg (Saar), Saarland, Germany

Now
57 °F

Broken clouds.


Feels Like: 57 °F
Forecast: 43 / 59 °F
Wind: 2 mph from North

Location: Saarbruecken / Ensheim

Current Time: May 25, 2015 at 6:15:17 PM

Latest Report: May 25, 2015 at 5:50 PM


Visibility: N/A

Pressure: 29.95 "Hg

Humidity: 82%

Dew point: 52 °F

Location of Homburg (Saar)Location

Historic Weather in Homburg (Saar) — Graph

°F

Homburg (Saar) temperature yesterday

Maximum temperature yesterday: 68 °F (at 1:20 PM)
Minimum temperature yesterday: 55 °F (at 3:50 AM)
Average temperature yesterday: 60 °F

Past Weeks' High & Low Weather Summary

 TemperatureHumidityPressure
High79 °F (May 12, 3:50 PM)100% (May 15, 2:50 AM)30.33 "Hg (May 15, 2:50 AM)
Low37 °F (May 21, 4:20 AM)34% (May 11, 2:50 PM)29.74 "Hg (May 18, 6:20 PM)
Average57 °F66%30.08 "Hg
* Reported May 10 5:20 PM — May 25 5:20 PM, Homburg (Saar), Weather by CustomWeather, © 2015

Note: Actual official high and low records may vary slightly from our data, if they occured in-between our weather recording intervals... More about our weather records

Advertising

Homburg (Saar) weather history for previous 24 hours

 ConditionsComfort  
Time TempWeatherWind HumidityBarometerVisibility
5:20 PM
Mon, May 25
55 °FPartly sunny.6 mph94%29.95 "HgN/A
4:50 PM57 °FPartly sunny.9 mph82%29.95 "HgN/A
4:20 PM57 °FPartly sunny.5 mph82%29.95 "HgN/A
3:50 PM55 °FLight rain. Partly sunny.7 mph88%29.98 "HgN/A
3:20 PM57 °FSprinkles. Partly sunny.9 mph77%29.98 "HgN/A
2:50 PM59 °FBroken clouds.9 mph72%29.98 "HgN/A
2:20 PM59 °FLight rain. Partly sunny.10 mph72%29.98 "HgN/A
1:50 PM57 °FLight rain. Partly sunny.13 mph72%29.98 "HgN/A
1:20 PM61 °FPartly sunny.17 mph63%29.98 "HgN/A
12:50 PM61 °FPartly sunny.14 mph63%29.98 "HgN/A
12:20 PM63 °FBroken clouds.13 mph56%29.98 "HgN/A
11:50 AM64 °FScattered clouds.8 mph52%29.98 "HgN/A
11:20 AM63 °FBroken clouds.9 mph56%29.98 "HgN/A
10:50 AM61 °FPartly sunny.9 mph63%30.01 "HgN/A
10:20 AM59 °FPassing clouds.7 mph72%30.01 "HgN/A
9:50 AM59 °FSunny.7 mph72%30.01 "Hg10 mi
9:20 AM57 °FPassing clouds.6 mph77%30.01 "HgN/A
8:50 AM55 °FBroken clouds.7 mph77%30.01 "HgN/A
8:20 AM55 °FBroken clouds.6 mph77%30.01 "HgN/A
7:50 AM54 °FSunny.6 mph88%30.01 "Hg10 mi
7:20 AM52 °FSunny.2 mph88%30.01 "Hg10 mi
6:50 AM50 °FSunny.2 mph94%30.01 "Hg10 mi
6:20 AM48 °FFog.3 mph94%30.01 "HgN/A
5:50 AM48 °FFog.2 mph87%30.01 "HgN/A
5:20 AM48 °FFog.3 mph94%30.01 "HgN/A
4:50 AM48 °FClear.3 mph94%30.01 "Hg10 mi
4:20 AM50 °FClear.2 mph88%30.01 "Hg10 mi
3:50 AM50 °FClear.6 mph88%30.01 "Hg10 mi
3:20 AM50 °FClear.6 mph88%30.01 "Hg10 mi
2:50 AM52 °FClear.1 mph88%30.01 "Hg10 mi
2:20 AM52 °FClear.3 mph88%30.01 "Hg10 mi
1:50 AM54 °FClear.3 mph82%30.01 "Hg10 mi
1:20 AM54 °FClear.3 mph88%30.04 "Hg10 mi
12:50 AM55 °FClear.3 mph82%30.04 "Hg10 mi
12:20 AM57 °FClear.No wind82%30.04 "Hg10 mi
11:20 PM
Sun, May 24
57 °FClear.No wind82%30.04 "Hg10 mi
10:50 PM57 °FClear.No wind82%30.04 "Hg10 mi
10:20 PM59 °FClear.No wind77%30.04 "Hg10 mi
9:50 PM59 °FSunny.No wind77%30.04 "Hg10 mi
9:20 PM61 °FSunny.No wind77%30.04 "Hg10 mi
8:50 PM61 °FSunny.No wind72%30.04 "Hg10 mi
8:20 PM63 °FSunny.No wind68%30.04 "Hg10 mi
7:50 PM63 °FSunny.No wind68%30.04 "Hg10 mi
7:20 PM63 °FPassing clouds.3 mph68%30.04 "HgN/A
6:50 PM63 °FSunny.2 mph68%30.04 "Hg10 mi
6:20 PM63 °FPartly sunny.5 mph68%30.04 "HgN/A
Weather by CustomWeather, © 2015

See weather overviewHow to use our weather pages